Home > Time Zones > World Clock > Weather > Italy > Milan > Past weeks

Flag for Italy Weather past 2 weeks in Milan, Italy

Now
66 °F

Passing clouds.


Feels Like: 66 °F
Forecast: 61 / 72 °F
Wind: 3 mph from South

Location: Milan / Linate

Current Time: Oct 20, 2014 at 8:36:29 PM

Latest Report: Oct 20, 2014 at 7:50 PM


Visibility: N/A

Pressure: 30.07 "Hg

Humidity: 88%

Dew point: 63 °F

Location of MilanLocation

Historic Weather in Milan — Graph

°F

Milan temperature yesterday

Maximum temperature yesterday: 73 °F (at 2:20 PM)
Minimum temperature yesterday: 61 °F (at 10:50 PM)
Average temperature yesterday: 67 °F

Past Weeks' High & Low Weather Summary

 TemperatureHumidityPressure
High77 °F (Oct 17, 4:20 PM)100% (Oct 7, 2:20 AM)30.30 "Hg (Oct 7, 2:20 AM)
Low54 °F (Oct 7, 2:20 AM)50% (Oct 6, 2:50 PM)29.77 "Hg (Oct 15, 3:50 PM)
Average64 °F90%30.02 "Hg
* Reported Oct 5 7:20 PM — Oct 20 7:20 PM, Milan, Weather by CustomWeather, © 2014

Note: Actual official high and low records may vary slightly from our data, if they occured in-between our weather recording intervals... More about our weather records

Advertising

Milan weather history for previous 24 hours

 ConditionsComfort  
Time TempWeatherWind HumidityBarometerVisibility
7:20 PM
Oct 20
68 °FScattered clouds.1 mph78%30.07 "HgN/A
6:50 PM68 °FScattered clouds.2 mph78%30.07 "HgN/A
6:20 PM70 °FScattered clouds.3 mph73%30.07 "HgN/A
5:50 PM70 °FScattered clouds.1 mph78%30.07 "HgN/A
5:20 PM72 °FPassing clouds.3 mph65%30.07 "Hg5 mi
4:50 PM73 °FScattered clouds.5 mph65%30.09 "Hg4 mi
4:20 PM72 °FScattered clouds.3 mph69%30.09 "Hg4 mi
3:50 PM72 °FScattered clouds.3 mph73%30.09 "Hg4 mi
3:20 PM72 °FScattered clouds.2 mph78%30.12 "Hg4 mi
2:50 PM70 °FScattered clouds.3 mph78%30.12 "Hg4 mi
2:20 PM70 °FFog.3 mph83%30.15 "Hg3 mi
1:50 PM68 °FFog.2 mph88%30.15 "Hg2 mi
1:20 PM68 °FFog.3 mph94%30.18 "Hg2 mi
12:50 PM66 °FFog.6 mph100%30.18 "Hg2 mi
12:20 PM66 °FFog.2 mph100%30.18 "Hg2 mi
11:50 AM64 °FFog.2 mph100%30.21 "Hg1 mi
11:20 AM63 °FFog.1 mph100%30.21 "Hg1 mi
10:50 AM63 °FFog.1 mph100%30.21 "Hg1 mi
9:50 AM61 °FFog.3 mph100%30.21 "Hg1 mi
9:20 AM61 °FSnow. Cloudy.3 mph100%30.21 "Hg0 mi
8:50 AM59 °FFog.3 mph100%30.21 "Hg0 mi
8:20 AM59 °FFog.2 mph100%30.21 "Hg0 mi
7:50 AM59 °FFog.No wind100%30.18 "Hg0 mi
7:20 AM59 °FFog.2 mph100%30.18 "Hg0 mi
6:50 AM59 °FFog.3 mph94%30.18 "Hg0 mi
5:20 AM57 °FFog.No wind100%30.18 "Hg1 mi
4:50 AM57 °FFog.No wind100%30.21 "Hg1 mi
4:20 AM57 °FFog.1 mph94%30.21 "Hg1 mi
3:50 AM59 °FFog.No wind94%30.21 "Hg1 mi
3:20 AM59 °FFog.No wind88%30.21 "Hg0 mi
2:50 AM59 °FFog.2 mph100%30.21 "Hg0 mi
2:20 AM59 °FFog.No wind100%30.21 "Hg0 mi
1:50 AM59 °FFog.1 mph100%30.24 "Hg0 mi
1:20 AM59 °FLight fog.1 mph100%30.24 "Hg1 mi
12:50 AM61 °FLight fog.No wind100%30.24 "Hg1 mi
12:20 AM61 °FLight fog.No wind100%30.24 "Hg2 mi
11:50 PM
Oct 19
61 °FLight fog.No wind100%30.24 "Hg2 mi
11:20 PM63 °FLight fog.No wind100%30.24 "Hg2 mi
10:50 PM61 °FLight fog.1 mph100%30.24 "Hg2 mi
10:20 PM63 °FLight fog.1 mph100%30.24 "Hg2 mi
9:50 PM63 °FFog.2 mph100%30.24 "Hg2 mi
9:20 PM63 °FFog.No wind100%30.24 "Hg2 mi
8:50 PM64 °FFog.1 mph100%30.24 "Hg2 mi
8:20 PM64 °FFog.2 mph94%30.24 "Hg2 mi
Weather by CustomWeather, © 2014

See weather overviewHow to use our weather pages